カタログに戻る

ONEWEB-0282

運用中通信PO
NORAD 49000·PAYLOAD·🇬🇧 United Kingdom

打ち上げ Jul 1, 2021 から Vostochny Cosmodrome

Loading…

次のパス (今後24時間)

TLE

最新Source: CelesTrak SupGP

元期: Sep 14, 2026, 15:04 UTC

1 49000C 21060AK  26257.62827963  .00000564  00000+0  14780-2 0  2570
2 49000  87.9156 211.0197 0002033  76.0654 319.2181 13.16595991    13

AllMySatでONEWEB-0282をリアルタイム追跡

Download on the App Store